Find STARLINK-37341

NORAD ID: 799500948 Int'l Des: 2026-132B Constellation: starlink operational

Aktuelle Ansicht

3D-Globus wird geladen...

About STARLINK-37341

STARLINK-37341 (NORAD 799500948) is a starlink constellation satellite launched Jun 7, 2026

Über STARLINK-37341

Beschreibung wird geladen...

Nächste Überflüge

Passes for default location (London). Set your location on the main map for personalized predictions.

Höhenverlauf

Loading altitude history...

Zweizeiliger Elementsatz

1 99999C 2026132B 26163.61159721 .00826220 00000-0 953340-4 0 1632
2 99999 53.1637 346.8922 0009069 278.2417 237.1291 16.07690890 13
Epoch: 12. Juni 2026 • Age: 9 hours